Location: Unspecified
(41.4797°N, 0.0000°E)
Time: 01:28:11
(UTC+00:00)

Vanguard 2 Rocket - Visible Passes

Search period start: 04 April 2026 00:00
Search period end: 14 April 2026 00:00
Orbit: 554 x 3286 km, 32.9° (Epoch: 29 March)

Date Brightness Start Highest point End Pass type
(mag) Time Alt. Az. Time Alt. Az. Time Alt. Az.
4 Apr 9.1 02:26:00 10° SE 02:26:00 10° SE 02:26:08 10° ESE visible
4 Apr 8.2 04:31:22 15° SW 04:33:48 19° SSW 04:38:53 10° SSE visible
5 Apr 8.2 03:30:17 20° S 03:30:17 20° S 03:33:33 10° SE visible
6 Apr 8.5 04:34:36 11° SW 04:36:31 13° SSW 04:39:12 10° S visible
7 Apr 8.6 03:33:36 13° S 03:33:36 13° S 03:34:50 10° SSE visible
8 Apr 9.2 20:54:56 10° SSW 20:55:17 11° SSW 20:55:17 11° SSW visible
9 Apr 8.8 19:50:23 10° S 19:53:40 13° SSE 19:54:30 13° SSE visible
10 Apr 8.7 20:55:56 10° SW 20:59:05 19° SSW 20:59:05 19° SSW visible
11 Apr 8.4 19:50:22 10° SSW 19:56:22 20° SSE 19:58:15 18° SE visible
11 Apr 9.3 22:03:25 10° SW 22:03:38 11° SW 22:03:38 11° SW visible
12 Apr 8.2 20:57:27 10° SW 21:02:44 27° SSW 21:02:44 27° SSW visible
13 Apr 8.2 19:51:16 10° SW 19:59:03 27° SSE 20:01:47 21° SE visible
13 Apr 9.0 22:05:32 10° WSW 22:07:10 16° WSW 22:07:10 16° WSW visible
